Погода в Большом

Россия / Волгоградская область     50°13′13″N   43°26′15″E
темп.,
°C
ветер,
м/с
пор.,
м/с
влажн.,
%
обл.,
%
осадки,
мм/ч
давл.,
гПа
погр.,
м
23 октября, сб
сб2300:00+11юз41084100 0.0 1014191
03:00+10юз3688100 0.0 1014113
06:00+9юз3691100 0.0 1014102
09:00+13юз346713 0.0 1015211
12:00+17юз4648100 0.0 1015949
15:00+18ююз5849100 0.0 10131316
18:00+13зсз71273100 0.1 1014518
21:00+11юз41077100 0.8 1014435
24 октября, вс
вс2400:00+11з51075100 0.0 1015496
03:00+8зсз377598 0.0 1016142
06:00+5зсз37725 0.0 1018150
09:00+7зсз466180 0.0 1019437
12:00+10зсз564337 0.0 10191109
15:00+10зсз5542100 0.0 10181288
18:00+7зсз3354100 0.0 101954
21:00+5зсз3460100 0.0 101974
25 октября, пн
пн2500:00+4зсз496497 0.0 1019229
03:00+3сз510839 0.0 1020314
06:00+3сз5108650 0.1 1022628
09:00+3ссз7962100 0.1 10241176
12:00+5ссз794790 0.0 10251397
15:00+5ссз794474 0.0 10261433
18:00+2ссз485692 0.0 1029181
21:000ссз366019 0.0 1031115
26 октября, вт
вт2600:00−1ссз33645 0.0 103241
03:00−2ссз34675 0.0 103249
06:00−2сз22710 0.0 103317
09:00+2зсз23531 0.0 1033243
12:00+6з34345 0.0 1032806
15:00+7з453130 0.0 1031924
18:00+3зюз334352 0.0 103125
21:00+2зюз334727 0.0 103136
27 октября, ср
ср2700:00+1зюз34507 0.0 103144
03:000зюз33525 0.0 103137
06:00−1юз33545 0.0 103036
09:00+4юз46415 0.0 1030231
12:00+9юз56275 0.0 1029744
15:00+10юз56230 0.0 1026875
18:00+5ююз46369 0.0 102690
21:00+3ююз4104351 0.0 1025162